Regional Weather Roundup
Issued by NWS

Home | Current Version | Previous Version | Text Only | Print | Product List | Glossary Off
Versions: 1 2 3 4 5 6 7 8 9 10 11 12 13 14 15 16 17 18 19 20 21 22 23 24 25 26 27 28 29 30 31 32 33 34 35 36 37 38 39 40 41 42 43 44 45 46 47 48 49 50

000
ASUS43 KDTX 201910
RWRMI
MICHIGAN HOURLY REGIONAL WEATHER ROUNDUP
NATIONAL WEATHER SERVICE DETROIT/PONTIAC MI
200 PM EST SAT JAN 20 2018

NOTE: "FAIR" INDICATES FEW OR NO CLOUDS BELOW 12,000 FEET WITH NO
SIGNIFICANT WEATHER AND/OR OBSTRUCTION TO VISIBILITY.

MIZ047>049-052>055-059>063-066>070-074>076-081>083-202000-
SOUTHEAST LOWER MICHIGAN

CITY           SKY/WX    TMP DP  RH WIND       PRES   REMARKS
ADRIAN         FAIR      38  28  67 W10       29.95S WCI  31
ALMA           FAIR      43  35  71 S7        29.90R
ANN ARBOR      FAIR      41  30  65 S7        29.92F
BAD AXE        FAIR      38  31  75 W6        29.88S WCI  34
CARO           FAIR      42  32  67 W6        29.88S
DETROIT CITY   FAIR      42  28  57 W12       29.92F
DETROIT        PTSUNNY   42  29  59 SW12      29.94S
FLINT          FAIR      40  28  62 SW8       29.91S WCI  34
GROSSE ILE     FAIR      40  29  65 SW10G16   29.93F WCI  34
HILLSDALE      FAIR      39  28  65 SW8       29.92S WCI  34
HOWELL         FAIR      41  30  65 W7        29.90S

CITY           SKY/WX    TMP DP  RH WIND       PRES   REMARKS
JACKSON        FAIR      39  29  67 SW15      29.92S WCI  31
LAMBERTVILLE   FAIR      39  29  67 SW10G20   29.95F WCI  33
LANSING        FAIR      42  30  62 SW9       29.92S
LAPEER         FAIR      41  29  61 W10       29.90R
MASON          FAIR      41  27  56 SW8       29.91S
MONROE         FAIR      39  28  64 SW12      29.94S WCI  32
MT. CLEMENS    PTSUNNY   45  28  51 SW9       29.90F
PONTIAC        PTSUNNY   42  30  62 W10       29.89S
PORT HOPE        N/A     41  31  67 W7        29.85R
PORT HURON     FAIR      43  27  52 S8        29.90R
TRI CITIES     FAIR      42  34  73 SW12      29.89F
MIDLAND        FAIR      46  32  58 SW10      29.87S
TROY           FAIR      44  29  54 S7        29.92F
SAGINAW HB     FAIR      39  32  75 SW10      29.89S WCI  32
$$
MIZ043>046-050>051-056>058-064>065-071>073-077>080-202000-
SOUTHWEST LOWER MICHIGAN

CITY           SKY/WX    TMP DP  RH WIND       PRES   REMARKS
BATTLE CREEK   FAIR      40  30  67 SW9       29.93S WCI  34
BENTON HARBOR  FAIR      42  29  59 SW13      29.94S
BIG RAPIDS     FAIR      44  29  56 W8        29.87S
COLDWATER      FAIR      38  29  72 SW10      29.94S WCI  30
FREMONT        FAIR      43  28  54 SW9       29.89S
HOLLAND        FAIR      40  32  73 SW12      29.92F WCI  33
GRAND RAPIDS   PTSUNNY   42  32  67 W10       29.91S
IONIA          FAIR      41  31  67 SW10      29.90R
KALAMAZOO      FAIR      41  29  62 SW12      29.94R
LUDINGTON      FAIR      38  34  85 SW6       29.90R WCI  33
MARSHALL       FAIR      39  28  65 SW10      29.92S WCI  32
MOUNT PLEASANT FAIR      46  32  59 SW6       29.88R
MUSKEGON       PTSUNNY   42  33  70 SW10      29.91F
SOUTH HAVEN    FAIR      41  29  62 SW12G20   29.94S
$$
MIZ016>042-202000-
NORTHERN LOWER MICHIGAN

CITY           SKY/WX    TMP DP  RH WIND       PRES   REMARKS
ALPENA         PTSUNNY   43  31  62 VRB6      29.84S
BEAVER ISLAND  PTSUNNY   37  32  81 SW7       29.86R WCI  32
BELLAIRE       PTSUNNY   41  33  73 SW5       29.88R
CADILLAC       FAIR      43  31  63 SW7       29.85S
CHARLEVOIX     FAIR      40  32  73 W7        29.90R
FRANKFORT      FAIR      42  32  68 W5        29.89R
GAYLORD        PTSUNNY   38  31  76 SW8       29.84R WCI  32
GRAYLING       FAIR      42  29  61 SW7       29.85S
HARBOR SPRINGS CLOUDY    37  31  80 W6        29.86R WCI  32
HOUGHTON LAKE  FAIR      40  30  67 W5        29.85S
MANISTEE       FAIR      41  33  73 W8        29.89R
OSCODA         FAIR      39  29  68 SW8       29.85S WCI  33
PELLSTON       PTSUNNY   40  30  67 W7        29.85S
ROGERS CITY    PTSUNNY   41  30  66 NW6       29.85R
TRAVERSE CITY  PTSUNNY   42  32  67 NW6       29.86S
$$
MIZ007>008-015-202000-
EASTERN UPPER MICHIGAN

CITY           SKY/WX    TMP DP  RH WIND       PRES   REMARKS
KINROSS        FAIR      39  28  65 W12       29.81S WCI  32
MACKINAC ISLAN CLOUDY    37  30  75 W10       29.83S WCI  30
NEWBERRY       CLOUDY    38  29  72 W10       29.81S WCI  31
S. S. MARIE    FAIR      41  32  70 W9        29.81R
MUNISING         N/A     41  31  67 SW7       29.83R
$$
MIZ004>006-011>014-085-202000-
CENTRAL UPPER MICHIGAN

CITY           SKY/WX    TMP DP  RH WIND       PRES   REMARKS
MANISTIQUE     CLOUDY    39  30  70 CALM      29.84S
ESCANABA       CLOUDY    38  29  70 W8        29.86S WCI  32
MENOMINEE      CLOUDY    42  29  59 CALM      29.88F
SAWYER-GWINN   CLOUDY    37  28  70 W8        29.82S WCI  31
$$
MIZ001>003-009>011-084-202000-
WESTERN UPPER MICHIGAN

CITY           SKY/WX    TMP DP  RH WIND       PRES   REMARKS
IRON MOUNTAIN  CLOUDY    37  30  75 S6        29.83F WCI  32
HOUGHTON       FAIR      38  29  70 W17       29.80R WCI  28
COPPER HARBOR    N/A     36  31  82 VRB5      29.81S WCI  32
IRONWOOD       PTSUNNY   38  30  73 S3        29.82F
$$

ABBREVIATIONS USED IN REMARKS
   TC - TEMPERATURE IN CELSIUS
  WCI - WIND CHILL INDEX
   HX - HEAT INDEX
  VSB - VISIBILITY





USA.gov is the U.S. government's official web portal to all federal, state and local government web resources and services.